Temp
-12 -12 -12 -13 -13 -13 -13 -13 -13 -13 -14 -14 -14 -14 -13 -13 -13 -12 -12 -12 -11 -11 -11 -11 -11 -12 -12 -12 -13 -13 -13 -13 -13 -13 -15 -16 -17 -17 -18 -18 -18 -17 -13 -12 -13
-12 -12 -13 -13 -13 -13 -13 -14 -14 -14 -14 -14 -14 -14 -14 -14 -13 -13 -12 -12 -12 -12 -12 -12 -12 -12 -12 -13 -13 -13 -14 -14 -15 -16 -17 -17 -18 -19 -18 -18 -18 -18 -16 -14 -14
-13 -13 -13 -13 -13 -13 -14 -14 -14 -14 -15 -15 -15 -15 -14 -14 -14 -13 -13 -13 -12 -12 -12 -12 -12 -13 -13 -13 -14 -14 -14 -15 -16 -17 -18 -18 -19 -19 -19 -19 -19 -18 -18 -16 -15
-13 -13 -13 -13 -13 -14 -14 -14 -14 -15 -15 -15 -15 -15 -15 -14 -14 -14 -13 -13 -13 -12 -13 -13 -13 -13 -13 -14 -14 -15 -15 -16 -17 -18 -19 -19 -19 -19 -19 -19 -19 -18 -18 -16 -15
-13 -13 -13 -14 -14 -14 -14 -14 -15 -15 -15 -15 -15 -15 -15 -15 -15 -14 -14 -13 -13 -13 -13 -13 -13 -13 -13 -14 -15 -16 -16 -16 -18 -18 -19 -20 -20 -19 -19 -19 -19 -18 -18 -17 -16
-13 -13 -13 -14 -14 -14 -14 -14 -15 -15 -15 -15 -15 -15 -15 -15 -15 -15 -14 -14 -13 -13 -13 -13 -14 -14 -15 -15 -15 -16 -17 -17 -18 -19 -20 -20 -20 -20 -20 -19 -19 -18 -18 -17 -17
-13 -13 -13 -14 -14 -14 -14 -14 -14 -15 -15 -15 -15 -15 -15 -15 -15 -15 -14 -14 -14 -14 -14 -14 -14 -15 -15 -15 -16 -16 -17 -18 -19 -19 -20 -21 -20 -20 -20 -20 -19 -19 -19 -17 -16
-13 -13 -13 -14 -14 -14 -14 -14 -14 -14 -15 -15 -15 -15 -15 -15 -15 -15 -15 -15 -15 -15 -14 -14 -15 -15 -16 -16 -17 -17 -18 -18 -19 -19 -20 -21 -21 -21 -20 -20 -20 -20 -18 -17 -16
-13 -13 -13 -14 -14 -14 -14 -14 -14 -14 -14 -15 -15 -15 -15 -14 -15 -15 -15 -15 -15 -15 -15 -15 -15 -16 -16 -16 -17 -17 -17 -18 -19 -20 -21 -21 -21 -21 -20 -20 -20 -19 -16 -16 -16
-12 -13 -13 -14 -14 -14 -14 -13 -13 -14 -14 -14 -14 -14 -14 -15 -15 -15 -15 -15 -15 -15 -15 -15 -16 -16 -17 -16 -16 -17 -17 -19 -20 -20 -21 -21 -21 -21 -20 -20 -20 -18 -16 -16 -16
-12 -12 -12 -13 -13 -14 -13 -13 -13 -13 -14 -13 -13 -14 -14 -14 -14 -15 -15 -15 -15 -15 -16 -16 -16 -16 -17 -17 -16 -18 -18 -19 -20 -20 -21 -21 -21 -21 -20 -19 -19 -19 -17 -16 -16
-11 -12 -12 -12 -12 -12 -12 -12 -12 -12 -13 -13 -13 -13 -14 -14 -14 -15 -15 -15 -15 -15 -16 -16 -16 -16 -17 -17 -17 -17 -18 -19 -20 -21 -21 -21 -21 -21 -20 -19 -18 -18 -17 -16 -16
-11 -11 -11 -11 -11 -11 -11 -12 -12 -12 -12 -12 -12 -13 -14 -14 -14 -14 -15 -15 -16 -16 -16 -17 -16 -17 -17 -18 -17 -17 -18 -19 -19 -20 -21 -21 -21 -20 -20 -19 -19 -17 -17 -16 -16
-10 -11 -12 -11 -10 -10 -11 -11 -11 -12 -12 -12 -12 -13 -13 -14 -14 -14 -15 -15 -16 -16 -16 -16 -17 -17 -17 -17 -17 -17 -17 -19 -19 -21 -20 -21 -21 -20 -20 -20 -18 -17 -17 -17 -16
-10 -10 -10 -10 -9 -10 -10 -11 -11 -12 -12 -12 -13 -13 -13 -14 -14 -14 -14 -15 -16 -16 -16 -16 -17 -17 -17 -17 -17 -17 -17 -18 -19 -20 -20 -20 -20 -19 -19 -20 -19 -18 -18 -17 -17
-11 -9 -10 -10 -9 -10 -10 -10 -11 -11 -12 -12 -13 -13 -13 -13 -14 -14 -14 -15 -16 -16 -16 -16 -16 -16 -17 -17 -17 -17 -17 -18 -18 -19 -20 -20 -20 -20 -19 -18 -18 -18 -18 -17 -17
-10 -10 -9 -10 -10 -9 -9 -9 -10 -11 -12 -12 -13 -13 -13 -13 -13 -14 -14 -15 -15 -16 -16 -16 -16 -16 -16 -17 -17 -18 -17 -17 -18 -19 -19 -19 -19 -19 -19 -18 -17 -18 -18 -17 -16
-11 -10 -10 -10 -10 -10 -10 -10 -10 -10 -11 -11 -12 -12 -13 -13 -13 -13 -14 -14 -14 -15 -15 -16 -16 -15 -16 -16 -16 -17 -17 -17 -17 -17 -18 -18 -18 -18 -18 -18 -18 -17 -17 -17 -16
-11 -11 -10 -10 -10 -10 -11 -10 -10 -10 -11 -12 -11 -12 -12 -13 -13 -13 -13 -13 -14 -14 -14 -15 -15 -15 -16 -16 -16 -16 -17 -17 -17 -17 -17 -17 -18 -18 -18 -18 -18 -17 -17 -17 -16
-12 -12 -12 -11 -11 -10 -10 -11 -10 -10 -10 -11 -11 -12 -12 -12 -13 -13 -13 -13 -13 -13 -14 -15 -15 -14 -15 -15 -15 -16 -17 -17 -17 -17 -16 -16 -17 -17 -18 -18 -18 -17 -17 -17 -17
-12 -12 -12 -12 -11 -11 -10 -10 -11 -11 -11 -11 -11 -11 -12 -12 -13 -13 -13 -13 -13 -13 -14 -14 -15 -15 -14 -15 -16 -16 -16 -16 -16 -16 -17 -17 -17 -17 -17 -17 -17 -17 -17 -17 -17
-12 -12 -12 -12 -12 -11 -11 -11 -11 -11 -11 -11 -11 -12 -12 -12 -13 -13 -13 -13 -13 -13 -14 -14 -14 -15 -15 -15 -15 -15 -16 -17 -17 -17 -17 -16 -17 -17 -17 -16 -16 -16 -16 -16 -17
-12 -12 -13 -12 -12 -12 -11 -11 -11 -11 -11 -11 -12 -12 -12 -12 -12 -13 -13 -13 -13 -13 -13 -13 -13 -14 -14 -14 -15 -15 -16 -16 -16 -16 -16 -17 -16 -16 -16 -15 -16 -16 -16 -16 -16
-12 -12 -12 -12 -12 -12 -12 -12 -12 -12 -12 -12 -12 -12 -13 -13 -13 -13 -13 -13 -13 -13 -13 -14 -14 -14 -14 -15 -16 -16 -16 -16 -16 -16 -16 -17 -17 -17 -16 -16 -16 -15 -15 -15 -15
-12 -12 -13 -12 -13 -13 -12 -12 -12 -12 -12 -12 -12 -12 -13 -13 -13 -14 -14 -14 -13 -14 -14 -14 -14 -14 -14 -14 -15 -16 -16 -16 -16 -17 -16 -17 -17 -17 -17 -17 -17 -17 -17 -16 -15
-12 -12 -12 -12 -13 -13 -13 -13 -12 -12 -12 -13 -13 -12 -13 -13 -14 -14 -14 -14 -14 -14 -14 -14 -14 -15 -15 -15 -15 -16 -16 -16 -17 -17 -17 -16 -17 -17 -17 -16 -16 -17 -17 -17 -17
-12 -12 -13 -13 -13 -14 -14 -13 -13 -13 -12 -13 -13 -13 -13 -13 -14 -14 -14 -15 -15 -15 -15 -15 -15 -15 -15 -15 -16 -16 -17 -17 -17 -17 -17 -17 -17 -17 -17 -17 -16 -17 -17 -17 -17
Height
5843 5841 5838 5835 5833 5830 5827 5825 5822 5818 5815 5811 5807 5803 5799 5796 5794 5791 5787 5785 5782 5779 5775 5772 5768 5764 5759 5755 5750 5745 5741 5734 5729 5722 5715 5708 5705 5698 5698 5706 5709 5716 5729 5742 5751
5843 5840 5838 5835 5832 5829 5826 5823 5820 5818 5814 5810 5806 5802 5798 5795 5791 5789 5787 5782 5779 5775 5772 5767 5762 5757 5753 5748 5743 5737 5732 5725 5717 5708 5702 5696 5690 5688 5689 5694 5700 5705 5712 5723 5737
5842 5839 5836 5834 5831 5829 5826 5823 5819 5816 5812 5809 5805 5801 5797 5793 5790 5786 5783 5780 5775 5772 5768 5763 5758 5752 5746 5741 5735 5728 5723 5716 5705 5697 5690 5685 5680 5677 5680 5685 5689 5692 5699 5708 5724
5841 5838 5836 5834 5830 5827 5824 5821 5818 5815 5811 5807 5803 5800 5796 5791 5788 5783 5780 5777 5773 5769 5764 5759 5753 5746 5741 5735 5728 5722 5714 5707 5698 5689 5682 5676 5672 5670 5671 5676 5679 5684 5690 5700 5718
5840 5838 5836 5833 5830 5827 5823 5820 5816 5814 5810 5807 5803 5799 5795 5791 5785 5781 5777 5773 5770 5766 5760 5755 5748 5742 5735 5729 5722 5715 5708 5698 5690 5682 5675 5669 5664 5663 5664 5667 5670 5677 5684 5694 5709
5839 5837 5834 5831 5829 5825 5822 5819 5815 5811 5808 5805 5801 5797 5793 5789 5784 5779 5774 5771 5766 5761 5756 5750 5744 5738 5731 5723 5717 5709 5700 5692 5683 5675 5669 5664 5659 5658 5659 5662 5667 5672 5678 5689 5703
5838 5835 5833 5830 5827 5824 5820 5817 5813 5810 5806 5803 5799 5795 5791 5788 5782 5778 5774 5769 5763 5758 5752 5746 5739 5734 5727 5720 5711 5704 5696 5685 5676 5670 5665 5660 5656 5655 5655 5659 5663 5668 5676 5686 5700
5836 5834 5832 5829 5825 5822 5818 5814 5811 5807 5804 5800 5797 5793 5789 5785 5780 5775 5771 5766 5760 5755 5749 5742 5735 5730 5724 5718 5709 5702 5692 5683 5673 5666 5661 5658 5654 5653 5654 5657 5661 5669 5678 5685 5697
5834 5831 5829 5826 5823 5819 5815 5812 5809 5805 5801 5797 5794 5791 5788 5783 5778 5774 5768 5763 5758 5752 5746 5740 5734 5727 5721 5714 5708 5698 5689 5680 5671 5664 5659 5656 5653 5654 5657 5658 5663 5670 5670 5687 5693
5832 5829 5826 5823 5820 5816 5813 5810 5806 5803 5798 5795 5792 5790 5787 5782 5777 5773 5768 5762 5756 5751 5746 5739 5732 5726 5719 5712 5702 5695 5688 5678 5671 5664 5657 5655 5656 5656 5657 5660 5665 5668 5671 5677 5691
5831 5827 5824 5820 5816 5812 5808 5806 5805 5802 5796 5792 5788 5785 5782 5779 5775 5771 5767 5762 5755 5750 5743 5737 5731 5724 5717 5708 5701 5694 5687 5680 5672 5665 5659 5658 5658 5660 5662 5661 5665 5667 5669 5678 5687
5829 5826 5822 5818 5813 5809 5806 5803 5800 5799 5798 5791 5787 5783 5780 5777 5774 5769 5764 5760 5754 5747 5740 5735 5728 5721 5715 5708 5701 5695 5689 5681 5673 5668 5663 5661 5663 5664 5662 5664 5668 5670 5673 5678 5686
5828 5824 5820 5816 5812 5808 5804 5801 5797 5795 5793 5789 5784 5780 5778 5775 5771 5767 5763 5757 5751 5744 5737 5731 5727 5718 5713 5710 5705 5698 5691 5683 5677 5673 5668 5666 5667 5668 5666 5666 5673 5673 5675 5681 5688
5827 5823 5818 5814 5811 5806 5803 5800 5797 5794 5791 5787 5782 5778 5775 5770 5767 5762 5758 5754 5747 5741 5735 5728 5723 5718 5713 5709 5705 5699 5691 5685 5680 5678 5675 5674 5672 5672 5673 5673 5674 5677 5681 5685 5690
5824 5821 5817 5812 5809 5805 5802 5799 5796 5793 5789 5786 5782 5778 5773 5769 5763 5760 5755 5750 5744 5737 5734 5728 5721 5717 5712 5708 5703 5699 5693 5688 5684 5681 5678 5678 5678 5675 5677 5678 5679 5680 5682 5685 5689
5821 5818 5814 5811 5806 5803 5799 5796 5794 5792 5786 5783 5781 5777 5772 5767 5761 5756 5752 5747 5742 5736 5731 5726 5718 5715 5710 5706 5702 5699 5696 5692 5687 5684 5682 5680 5680 5678 5679 5681 5684 5685 5685 5688 5689
5817 5813 5811 5808 5804 5800 5796 5794 5792 5788 5785 5782 5778 5774 5771 5765 5759 5754 5749 5745 5740 5734 5731 5724 5716 5713 5711 5708 5704 5700 5698 5696 5691 5687 5685 5682 5682 5683 5682 5683 5685 5686 5687 5689 5691
5814 5810 5807 5804 5801 5797 5794 5791 5787 5784 5781 5778 5775 5771 5767 5762 5758 5752 5747 5742 5737 5731 5726 5722 5714 5711 5707 5705 5703 5702 5700 5696 5693 5690 5687 5685 5686 5685 5686 5686 5686 5687 5689 5691 5693
5809 5806 5802 5800 5798 5794 5791 5788 5784 5781 5779 5775 5772 5769 5764 5760 5754 5750 5745 5740 5735 5730 5726 5721 5714 5710 5707 5704 5703 5700 5699 5698 5695 5693 5691 5689 5688 5687 5687 5687 5689 5690 5692 5692 5694
5803 5802 5798 5794 5793 5790 5787 5785 5780 5776 5774 5771 5767 5765 5761 5757 5752 5747 5743 5738 5733 5729 5725 5721 5716 5711 5709 5705 5703 5702 5701 5698 5697 5696 5694 5692 5691 5691 5690 5690 5690 5690 5691 5693 5692
5797 5795 5793 5789 5788 5785 5782 5780 5777 5773 5770 5768 5764 5760 5757 5754 5749 5745 5742 5737 5731 5727 5724 5720 5716 5712 5708 5705 5703 5703 5700 5701 5698 5696 5694 5694 5694 5692 5692 5691 5691 5691 5690 5690 5691
5789 5788 5786 5783 5783 5780 5777 5774 5773 5768 5765 5762 5759 5757 5753 5750 5747 5742 5738 5734 5730 5726 5722 5718 5716 5712 5710 5706 5703 5704 5702 5700 5699 5699 5696 5694 5695 5695 5692 5691 5691 5691 5690 5688 5685
5781 5781 5779 5776 5774 5773 5770 5767 5765 5763 5760 5757 5753 5752 5750 5746 5743 5738 5735 5732 5728 5724 5721 5717 5714 5712 5708 5707 5702 5700 5701 5700 5698 5696 5694 5692 5692 5689 5689 5688 5687 5687 5686 5684 5682
5773 5772 5772 5769 5767 5765 5762 5761 5758 5756 5754 5751 5748 5746 5744 5742 5738 5734 5731 5728 5724 5722 5719 5716 5713 5709 5706 5704 5702 5699 5698 5698 5698 5697 5696 5692 5688 5688 5685 5683 5682 5681 5679 5677 5677
5766 5765 5762 5759 5759 5757 5755 5753 5750 5749 5747 5744 5743 5739 5737 5735 5733 5728 5725 5723 5720 5717 5715 5712 5709 5708 5703 5700 5699 5697 5695 5694 5693 5690 5689 5689 5687 5684 5679 5678 5675 5672 5671 5669 5666
5757 5755 5753 5750 5748 5747 5746 5744 5743 5740 5740 5737 5734 5732 5730 5727 5725 5722 5720 5716 5715 5713 5710 5707 5705 5703 5701 5697 5695 5693 5690 5689 5687 5686 5683 5680 5679 5676 5674 5670 5669 5666 5662 5658 5656
5748 5745 5743 5743 5739 5736 5736 5733 5733 5731 5730 5728 5727 5724 5722 5720 5717 5715 5713 5710 5709 5707 5704 5701 5698 5696 5695 5692 5690 5689 5687 5684 5681 5679 5676 5673 5671 5667 5664 5661 5658 5655 5651 5646 5642
Wind_Speed
18 20 20 20 21 21 22 23 22 27 26 28 28 28 24 20 19 20 19 18 20 22 24 24 25 27 28 29 29 31 32 36 41 45 47 46 46 48 45 38 44 54 65 71 65
18 19 23 23 23 23 24 24 23 27 26 29 27 28 26 23 21 22 21 21 21 25 26 26 29 30 29 29 29 31 34 38 43 43 42 36 39 39 40 36 38 42 55 68 69
18 19 20 22 25 27 28 26 25 26 28 29 27 28 27 25 23 24 23 24 25 25 28 28 29 29 30 30 31 33 36 38 40 39 39 32 31 34 34 34 35 41 45 62 63
19 20 21 22 23 25 26 27 28 26 28 29 29 27 29 27 29 28 26 26 27 29 30 30 32 33 31 32 33 33 38 40 36 35 34 29 26 27 27 27 34 38 40 55 63
20 21 21 22 24 25 25 27 26 28 28 29 30 28 29 28 29 29 28 29 30 30 32 33 33 34 34 34 34 35 38 40 35 31 32 25 23 24 23 24 33 34 38 48 57
21 22 22 24 25 25 27 27 29 28 28 29 30 30 29 29 30 31 32 32 32 33 35 36 35 35 35 36 36 37 38 39 34 29 27 25 18 17 18 21 30 33 37 45 54
24 25 25 25 25 25 25 25 28 30 29 28 29 30 28 30 29 31 31 32 33 34 35 35 37 37 35 37 37 38 38 38 34 28 25 21 15 11 13 19 30 29 28 42 55
23 24 25 24 24 27 26 26 26 28 29 25 26 27 27 28 26 29 31 33 33 35 36 36 36 37 36 34 35 35 35 35 32 28 24 16 12 7 10 16 22 18 22 32 54
22 23 24 27 26 28 23 24 26 27 27 24 24 24 27 25 26 28 32 35 35 36 37 37 34 37 37 36 34 35 36 35 29 26 24 12 9 3 4 11 16 29 17 21 55
24 26 27 29 30 29 24 22 22 24 24 25 24 23 25 25 28 28 31 34 36 37 39 38 37 36 36 36 39 38 36 34 27 26 20 11 6 4 7 3 13 32 13 23 50
27 28 29 30 28 27 23 20 21 20 22 24 22 23 24 26 26 29 33 35 37 36 39 37 38 35 35 36 38 36 35 31 25 27 19 9 5 10 11 5 22 32 10 22 54
29 28 30 30 27 25 18 17 19 17 18 23 23 22 22 25 27 29 32 34 35 35 37 36 36 35 34 33 35 34 31 28 24 27 16 12 17 15 4 14 21 19 8 14 33
29 31 28 28 27 23 20 18 17 17 21 21 20 22 23 26 27 31 32 34 34 33 34 36 33 36 32 29 27 30 28 28 22 22 16 19 18 11 1 11 15 10 7 15 20
30 31 31 26 27 22 21 21 22 23 21 19 20 20 23 25 27 30 32 35 37 39 37 34 32 33 30 27 24 27 27 26 19 16 13 13 15 12 9 6 12 18 9 12 19
29 32 31 25 25 24 21 20 21 22 25 25 25 25 25 25 26 29 31 32 35 42 34 29 32 26 28 26 25 24 25 24 18 12 12 6 5 14 9 11 10 12 10 11 9
27 29 29 31 22 24 22 22 21 23 24 24 24 27 27 28 29 29 30 32 35 37 37 31 29 26 25 25 23 21 22 20 19 12 7 8 4 5 11 15 10 12 11 8 6
29 27 28 31 25 19 22 22 21 22 24 24 26 29 30 29 29 29 29 31 33 33 32 30 30 28 21 19 17 18 16 15 17 13 9 8 10 8 6 11 7 8 9 9 4
30 30 30 28 27 23 21 21 20 21 24 26 28 28 28 28 26 27 29 31 32 33 32 28 28 28 25 22 18 15 12 15 16 16 14 10 11 12 6 6 5 6 6 6 6
31 31 32 27 27 27 22 20 19 19 21 22 28 27 26 25 25 26 27 29 31 32 31 28 27 30 27 23 18 17 13 14 14 15 14 15 17 15 9 7 3 3 5 8 10
31 32 33 30 28 27 24 24 18 17 20 24 26 26 25 24 24 24 26 27 28 29 30 26 24 28 25 26 22 19 14 11 9 11 14 18 20 19 15 11 8 7 4 4 9
31 33 33 31 30 28 25 24 22 18 20 22 23 23 25 23 22 23 24 25 25 25 26 26 25 27 27 25 25 21 15 8 8 10 11 13 13 16 13 11 10 10 12 10 7
36 33 34 34 31 29 28 27 24 21 20 21 22 23 23 24 22 21 24 24 24 22 21 23 23 22 23 23 23 22 16 12 9 11 14 16 13 16 17 13 12 14 15 16 18
37 35 32 36 32 31 29 28 26 22 21 22 21 24 24 22 23 21 24 24 23 20 20 20 21 21 23 22 24 23 18 15 13 14 16 18 17 19 19 20 22 23 23 23 24
36 34 34 34 31 32 31 30 31 25 21 24 23 24 26 25 23 22 23 24 23 21 20 19 20 22 23 21 19 19 22 19 16 15 16 21 26 26 28 27 24 28 35 37 37
38 37 37 35 30 33 32 31 32 29 24 23 24 25 27 26 25 24 24 25 25 21 20 21 21 19 23 24 22 21 21 22 23 24 24 23 24 28 32 33 32 34 34 37 42
41 42 44 42 32 32 35 33 32 31 31 28 27 27 28 29 28 26 25 27 27 25 23 25 25 24 21 24 25 24 27 26 26 27 29 29 30 33 35 36 38 40 41 42 43
44 46 46 42 41 35 37 36 34 33 34 38 35 33 30 32 31 29 28 29 28 28 27 26 29 29 23 28 31 29 28 29 30 32 33 35 36 38 40 42 44 46 49 50 51
Wind_Direction
5 3 3 2 1 1 0 2 2 359 354 358 357 356 360 357 354 353 348 343 342 343 340 335 334 332 328 323 317 313 314 314 310 302 293 288 277 269 265 256 241 231 215 213 212
3 3 0 357 357 358 359 359 358 360 355 354 355 357 356 359 358 353 349 349 347 347 339 340 338 335 332 328 321 316 319 317 312 303 297 292 274 265 260 255 240 230 221 211 209
354 354 353 355 357 355 355 356 353 351 352 359 354 357 356 356 356 354 355 351 350 345 342 339 340 340 336 334 329 324 323 321 314 303 305 294 277 262 260 252 234 223 223 213 203
352 347 347 350 351 352 352 351 349 347 347 352 353 353 355 354 356 355 352 351 348 345 345 343 345 344 343 339 335 331 327 327 319 309 311 295 287 264 259 246 227 219 217 213 202
346 346 347 345 346 345 344 346 345 345 343 347 352 351 353 352 354 352 350 349 347 346 345 346 347 347 346 343 339 336 332 330 324 315 314 310 297 262 251 233 217 212 216 210 199
341 341 344 345 347 343 340 339 341 337 339 339 342 348 351 349 351 353 351 349 347 347 345 343 347 349 349 345 340 341 336 335 332 322 318 320 303 279 253 230 215 207 215 205 193
337 339 340 341 339 341 340 335 333 338 339 333 334 342 346 345 347 348 349 348 350 350 347 343 346 348 352 347 343 344 339 340 335 329 321 321 308 286 240 220 214 210 212 199 194
332 335 339 339 341 338 335 336 334 336 339 331 329 336 342 343 344 341 343 347 347 348 347 347 345 346 349 352 347 343 345 348 337 334 327 328 314 303 236 222 207 200 168 201 194
329 331 331 332 332 341 334 334 338 335 335 333 331 334 337 336 337 338 341 342 345 345 346 346 347 343 347 352 350 354 354 352 348 343 339 335 318 327 259 232 212 188 164 188 192
339 334 331 330 334 332 332 339 336 338 337 335 333 333 332 333 334 337 339 340 341 342 345 347 346 347 347 348 355 360 357 356 359 355 356 352 352 97 39 346 213 189 149 162 196
343 346 346 342 338 335 322 320 334 339 342 336 331 333 329 330 333 336 337 338 337 339 342 346 344 345 350 352 356 2 359 360 7 9 12 25 58 109 67 94 181 198 199 174 190
342 343 351 350 346 338 326 325 330 335 339 334 332 333 329 326 328 329 331 334 335 337 337 343 342 347 350 356 354 1 1 5 12 20 33 72 102 105 144 114 181 213 195 159 192
341 341 350 350 349 341 332 330 332 333 336 335 343 342 335 330 327 328 329 332 334 330 333 338 345 346 350 356 352 0 4 11 20 33 58 106 111 78 15 70 182 111 204 176 185
334 337 343 351 352 347 340 341 341 342 341 344 344 348 344 340 337 335 335 331 329 331 339 335 346 346 348 347 357 1 11 17 23 44 70 112 101 77 39 43 80 106 143 218 214
331 334 337 344 352 347 347 340 343 345 349 348 346 343 346 344 343 340 339 334 330 335 343 340 339 347 344 347 2 6 15 17 24 39 61 108 81 91 85 86 78 69 115 119 117
323 325 329 335 348 352 351 345 338 340 349 351 354 350 345 341 339 340 342 338 337 339 344 346 337 349 350 351 358 11 15 16 27 34 52 77 86 59 85 85 121 130 121 137 127
312 319 322 327 336 347 348 346 335 334 345 348 347 344 341 341 341 345 346 343 342 342 350 351 342 350 358 356 3 7 9 21 35 38 54 65 70 35 87 108 103 127 146 144 168
309 312 316 321 322 329 332 342 344 346 343 346 341 345 344 341 347 350 351 356 355 352 357 357 342 351 354 1 6 20 25 30 31 36 43 44 46 74 41 89 117 128 145 176 202
304 306 308 313 313 319 325 329 340 343 343 342 344 344 344 345 348 354 355 1 2 3 0 0 344 352 353 357 3 10 15 22 33 35 34 48 55 60 68 75 70 172 195 209 215
303 306 306 313 311 312 318 318 328 342 343 342 347 346 346 346 347 352 356 359 5 7 7 7 354 354 2 355 358 3 7 17 27 35 29 34 45 48 45 43 33 13 4 283 258
295 302 303 308 312 308 306 305 315 323 331 336 339 344 347 344 342 344 347 351 1 5 7 6 1 355 2 357 350 359 354 3 14 18 14 26 39 37 26 13 7 351 336 324 303
290 297 301 304 308 305 305 301 301 310 319 325 330 330 340 340 334 336 337 341 349 359 3 2 6 1 7 8 356 10 10 353 360 353 351 348 358 5 350 349 332 323 315 307 305
293 291 296 299 303 304 302 302 290 300 315 316 322 323 326 329 326 327 329 332 338 345 352 355 3 4 2 8 3 4 10 359 339 329 331 328 330 327 328 328 326 323 319 311 306
296 293 288 288 296 299 298 300 291 282 304 306 311 316 317 318 319 318 323 325 329 332 337 339 346 348 345 349 355 348 346 348 343 332 323 316 319 320 317 314 308 306 308 307 304
291 286 287 287 289 293 293 295 292 284 288 298 305 308 309 308 312 309 311 316 316 317 321 323 325 333 329 331 337 333 331 329 325 321 320 313 308 306 307 308 307 303 298 294 294
297 294 296 288 281 283 290 293 290 287 284 285 294 299 296 303 303 303 303 307 308 307 309 312 313 318 316 315 319 318 316 317 313 309 305 303 301 299 298 296 296 294 293 291 289
301 300 298 293 285 284 286 287 286 287 288 283 286 297 290 299 297 299 300 302 304 300 301 305 305 305 306 303 307 307 306 303 300 299 296 295 296 296 295 292 290 290 289 290 289